period_start,C,m1,H,J0,J1,J2,J3,J4,J5,JA,JB,JC,JD,JJ,JK,JN,#
2014-02-18 00:00:04,0.22,1.13,0.00,23.17,28.50,31.49,6.21,31.54,1036.15,2034.73,3076.52,2980.41,3236.70,350.38,330.52,6.62,0000 0000 0000 0000 000000
2014-02-18 00:01:04,0.32,1.13,0.00,23.16,28.50,31.52,6.25,31.46,1036.16,2034.81,3076.00,2980.14,3236.26,350.46,330.07,6.62,0000 0000 0000 0000 000000
2014-02-18 00:02:05,0.25,1.14,0.00,23.15,28.50,31.50,6.20,31.38,1036.17,2034.89,3075.41,2979.83,3235.98,350.05,330.48,6.63,0000 0000 0000 0000 000000
2014-02-18 00:03:05,0.28,1.14,0.00,23.15,28.50,31.46,6.28,31.42,1036.18,2034.88,3074.89,2979.33,3235.43,349.80,329.84,6.64,0000 0000 0000 0000 000000
2014-02-18 00:04:05,0.27,1.14,0.00,23.15,28.50,31.47,6.04,31.42,1036.17,2034.95,3074.29,2979.07,3235.10,349.41,329.41,6.64,0000 0000 0000 0000 000000
2014-02-18 00:05:05,0.21,1.14,0.00,23.15,28.49,31.48,6.10,31.50,1036.18,2034.96,3073.60,2978.53,3234.51,349.43,329.75,6.65,0000 0000 0000 0000 000000
2014-02-18 00:06:06,0.35,1.14,0.00,23.15,28.48,31.50,6.04,31.29,1036.17,2034.95,3073.08,2978.18,3234.14,349.93,330.28,6.65,0000 0000 0000 0000 000000
2014-02-18 00:07:06,0.19,1.14,0.00,23.14,28.48,31.50,6.04,31.33,1036.18,2034.96,3072.43,2977.78,3233.55,348.85,329.24,6.66,0000 0000 0000 0000 000000
2014-02-18 00:08:06,0.32,1.15,0.00,23.14,28.47,31.47,5.99,31.25,1036.16,2034.97,3071.88,2977.31,3233.20,349.07,329.51,6.66,0000 0000 0000 0000 000000
2014-02-18 00:09:06,0.24,1.15,0.00,23.14,28.47,31.47,6.14,31.33,1036.16,2034.96,3071.33,2977.08,3232.85,350.16,329.78,6.67,0000 0000 0000 0000 000000
2014-02-18 00:10:06,0.17,1.15,0.00,23.14,28.47,31.47,6.08,31.21,1036.17,2034.98,3070.81,2976.58,3232.34,350.01,330.28,6.68,0000 0000 0000 0000 000000
2014-02-18 00:11:06,0.30,1.15,0.00,23.14,28.47,31.43,6.13,31.50,1036.19,2034.97,3070.23,2976.20,3232.02,350.08,330.12,6.68,0000 0000 0000 0000 000000
2014-02-18 00:12:07,0.17,1.15,0.00,23.14,28.47,31.46,6.07,31.54,1036.17,2034.96,3069.59,2975.85,3231.47,349.16,329.24,6.69,0000 0000 0000 0000 000000
2014-02-18 00:13:07,0.29,1.15,0.00,23.14,28.46,31.47,6.02,31.42,1036.18,2034.98,3069.10,2975.36,3231.13,349.71,329.78,6.69,0000 0000 0000 0000 000000
2014-02-18 00:14:07,0.24,1.15,0.00,23.13,28.45,31.43,6.17,31.50,1036.17,2034.99,3068.48,2975.05,3230.59,348.99,329.10,6.70,0000 0000 0000 0000 000000
2014-02-18 00:15:08,0.25,1.16,0.00,23.12,28.45,31.41,6.14,31.50,1036.17,2034.99,3068.02,2974.50,3230.19,349.91,329.99,6.71,0000 0000 0000 0000 000000
2014-02-18 00:16:08,0.27,1.16,0.00,23.12,28.45,31.42,6.07,31.29,1036.15,2034.99,3067.42,2974.18,3229.78,349.62,329.70,6.71,0000 0000 0000 0000 000000
2014-02-18 00:17:08,0.23,1.16,0.00,23.12,28.45,31.43,6.11,31.25,1036.16,2034.99,3066.85,2973.86,3229.31,349.08,329.44,6.72,0000 0000 0000 0000 000000
2014-02-18 00:18:08,0.23,1.16,0.00,23.12,28.45,31.42,6.15,31.54,1036.19,2034.99,3066.23,2973.34,3228.93,349.68,330.01,6.72,0000 0000 0000 0000 000000
2014-02-18 00:19:08,0.27,1.16,0.00,23.12,28.44,31.40,6.06,31.42,1036.16,2034.99,3065.53,2973.02,3228.37,350.20,330.16,6.73,0000 0000 0000 0000 000000
2014-02-18 00:20:09,0.24,1.16,0.00,23.12,28.44,31.39,6.22,31.46,1036.17,2034.99,3064.98,2972.46,3227.93,350.07,330.28,6.73,0000 0000 0000 0000 000000
2014-02-18 00:21:09,0.31,1.16,0.00,23.11,28.43,31.37,6.05,31.42,1036.18,2034.98,3064.38,2972.17,3227.39,349.88,330.02,6.74,0000 0000 0000 0000 000000
2014-02-18 00:22:09,0.22,1.17,0.00,23.11,28.42,31.35,6.21,31.42,1036.15,2034.99,3063.89,2971.82,3227.07,348.45,328.62,6.75,0000 0000 0000 0000 000000
2014-02-18 00:23:09,0.22,1.17,0.00,23.10,28.42,31.36,6.09,31.50,1036.18,2034.98,3063.26,2971.31,3226.54,350.19,330.42,6.75,0000 0000 0000 0000 000000
2014-02-18 00:24:09,0.28,1.17,0.00,23.10,28.42,31.37,6.15,31.46,1036.18,2034.98,3062.56,2970.92,3226.11,350.10,330.19,6.76,0000 0000 0000 0000 000000
2014-02-18 00:25:10,0.25,1.17,0.00,23.09,28.42,31.40,6.12,31.46,1036.16,2034.98,3062.03,2970.38,3225.57,350.20,330.28,6.76,0000 0000 0000 0000 000000
2014-02-18 00:26:10,0.30,1.17,0.00,23.09,28.42,31.37,6.19,31.42,1036.21,2034.99,3061.41,2970.11,3225.19,349.64,329.76,6.77,0000 0000 0000 0000 000000
2014-02-18 00:27:10,0.21,1.17,0.00,23.09,28.42,31.31,6.16,31.50,1036.20,2034.99,3060.90,2969.71,3224.82,349.63,329.75,6.78,0000 0000 0000 0000 000000
2014-02-18 00:28:10,0.24,1.17,0.00,23.10,28.41,31.37,6.09,31.54,1036.18,2034.99,3060.32,2969.26,3224.32,350.31,330.68,6.78,0000 0000 0000 0000 000000
2014-02-18 00:29:11,0.26,1.18,0.00,23.10,28.40,31.33,6.29,31.67,1036.15,2034.99,3059.70,2968.90,3223.83,350.77,330.81,6.79,0000 0000 0000 0000 000000
2014-02-18 00:30:11,0.27,1.18,0.00,23.09,28.40,31.35,6.21,31.67,1036.16,2034.99,3059.10,2968.36,3223.30,350.70,330.66,6.79,0000 0000 0000 0000 000000
2014-02-18 00:31:11,0.29,1.18,0.00,23.09,28.40,31.34,6.21,31.58,1036.15,2034.99,3058.45,2968.03,3222.78,349.45,329.58,6.80,0000 0000 0000 0000 000000
2014-02-18 00:32:11,0.25,1.18,0.00,23.09,28.40,31.33,6.21,31.58,1036.15,2034.99,3057.86,2967.48,3222.29,349.80,330.13,6.80,0000 0000 0000 0000 000000
2014-02-18 00:33:11,0.31,1.18,0.00,23.09,28.40,31.34,6.31,31.58,1036.15,2034.99,3057.27,2967.15,3221.95,349.68,329.78,6.81,0000 0000 0000 0000 000000
2014-02-18 00:34:12,0.19,1.18,0.00,23.09,28.40,31.32,6.01,31.71,1036.16,2034.99,3056.66,2966.71,3221.42,349.30,329.42,6.82,0000 0000 0000 0000 000000
2014-02-18 00:35:12,0.28,1.19,0.00,23.09,28.40,31.35,6.07,31.50,1036.15,2034.99,3056.14,2966.25,3221.06,348.76,328.92,6.82,0000 0000 0000 0000 000000
2014-02-18 00:36:12,0.23,1.19,0.00,23.09,28.39,31.32,6.06,31.71,1036.14,2034.99,3055.49,2965.83,3220.47,348.78,328.93,6.83,0000 0000 0000 0000 000000
2014-02-18 00:37:12,0.31,1.19,0.00,23.09,28.38,31.31,6.13,31.75,1036.13,2034.99,3054.90,2965.33,3220.11,349.16,329.28,6.83,0000 0000 0000 0000 000000
2014-02-18 00:38:13,0.25,1.19,0.00,23.09,28.38,31.29,6.09,31.75,1036.14,2034.99,3054.31,2965.10,3219.58,350.27,330.34,6.84,0000 0000 0000 0000 000000
2014-02-18 00:39:13,0.23,1.19,0.00,23.09,28.37,31.30,6.20,31.79,1036.14,2034.99,3053.65,2964.67,3219.21,350.01,330.09,6.85,0000 0000 0000 0000 000000
2014-02-18 00:40:13,0.26,1.19,0.00,23.09,28.37,31.31,6.33,31.46,1036.15,2034.99,3053.13,2964.25,3218.74,351.57,331.33,6.85,0000 0000 0000 0000 000000
2014-02-18 00:41:13,0.24,1.19,0.00,23.09,28.37,31.35,6.17,31.50,1036.15,2034.99,3052.48,2963.84,3218.28,349.96,330.21,6.86,0000 0000 0000 0000 000000
2014-02-18 00:42:13,0.28,1.20,0.00,23.09,28.37,31.34,6.10,31.79,1036.15,2034.99,3051.92,2963.33,3217.80,349.03,329.10,6.86,0000 0000 0000 0000 000000
2014-02-18 00:43:14,0.26,1.20,0.00,23.09,28.37,31.31,6.19,31.63,1036.15,2034.99,3051.33,2963.08,3217.30,350.15,330.22,6.87,0000 0000 0000 0000 000000
2014-02-18 00:44:14,0.22,1.20,0.00,23.08,28.37,31.27,6.06,31.71,1036.15,2034.99,3050.65,2962.57,3216.97,349.84,329.95,6.87,0000 0000 0000 0000 000000
2014-02-18 00:45:14,0.28,1.20,0.00,23.09,28.37,31.29,6.14,31.63,1036.15,2034.99,3050.16,2962.21,3216.42,349.02,329.17,6.88,0000 0000 0000 0000 000000
2014-02-18 00:46:14,0.24,1.20,0.00,23.09,28.36,31.27,6.21,31.63,1036.15,2034.99,3049.53,2961.84,3216.08,350.37,330.47,6.89,0000 0000 0000 0000 000000
2014-02-18 00:47:14,0.24,1.20,0.00,23.09,28.35,31.25,6.09,31.58,1036.14,2034.99,3048.95,2961.33,3215.50,350.09,329.82,6.89,0000 0000 0000 0000 000000
2014-02-18 00:48:15,0.29,1.21,0.00,23.09,28.35,31.27,6.07,31.46,1036.15,2034.99,3048.35,2961.08,3215.16,350.46,330.77,6.90,0000 0000 0000 0000 000000
2014-02-18 00:49:15,0.20,1.21,0.00,23.09,28.35,31.24,6.06,31.46,1036.15,2035.00,3047.75,2960.57,3214.64,348.49,328.15,6.90,0000 0000 0000 0000 000000
2014-02-18 00:50:15,0.30,1.21,0.00,23.09,28.35,31.19,6.05,31.46,1036.14,2035.00,3047.20,2960.19,3214.20,349.35,329.60,6.91,0000 0000 0000 0000 000000
2014-02-18 00:51:15,0.22,1.21,0.00,23.09,28.35,31.22,6.28,31.42,1036.13,2035.00,3046.51,2959.79,3213.64,350.73,330.77,6.92,0000 0000 0000 0000 000000
2014-02-18 00:52:15,0.28,1.21,0.00,23.10,28.35,31.24,6.13,31.63,1036.14,2035.00,3045.97,2959.32,3213.22,349.03,329.23,6.92,0000 0000 0000 0000 000000
2014-02-18 00:53:16,0.25,1.21,0.00,23.09,28.35,31.23,6.22,31.79,1036.14,2035.00,3045.36,2959.00,3212.77,349.50,330.15,6.93,0000 0000 0000 0000 000000
2014-02-18 00:54:16,0.23,1.21,0.00,23.09,28.35,31.22,6.27,31.67,1036.14,2035.00,3044.65,2958.43,3212.29,350.50,330.73,6.93,0000 0000 0000 0000 000000
2014-02-18 00:55:16,0.33,1.22,0.00,23.09,28.34,31.17,5.94,31.71,1036.12,2035.02,3044.11,2958.11,3211.96,348.07,328.56,6.94,0000 0000 0000 0000 000000
2014-02-18 00:56:16,0.22,1.22,0.00,23.09,28.33,31.22,6.22,31.63,1036.14,2035.02,3043.44,2957.59,3211.42,349.67,329.27,6.95,0000 0000 0000 0000 000000
2014-02-18 00:57:16,0.32,1.22,0.00,23.10,28.33,31.22,6.19,31.50,1036.13,2035.01,3042.81,2957.20,3210.92,349.04,329.17,6.95,0000 0000 0000 0000 000000
2014-02-18 00:58:16,0.26,1.22,0.00,23.11,28.32,31.21,6.24,31.63,1036.14,2035.00,3042.17,2956.73,3210.34,350.51,330.55,6.96,0000 0000 0000 0000 000000
2014-02-18 00:59:17,0.28,1.22,0.00,23.11,28.32,31.20,6.14,31.79,1036.14,2035.01,3041.48,2956.27,3209.96,349.85,329.92,6.96,0000 0000 0000 0000 000000
2014-02-18 01:00:17,0.28,1.22,0.00,23.10,28.32,31.20,6.04,31.88,1036.14,2035.02,3040.88,2955.92,3209.41,349.74,329.83,6.97,0000 0000 0000 0000 000000
2014-02-18 01:01:17,0.26,1.23,0.00,23.10,28.32,31.18,6.04,31.75,1036.15,2035.01,3040.33,2955.39,3209.12,349.64,329.74,6.97,0000 0000 0000 0000 000000
2014-02-18 01:02:17,0.25,1.23,0.00,23.10,28.32,31.18,6.03,31.75,1036.15,2035.00,3039.83,2955.13,3208.58,350.12,330.19,6.98,0000 0000 0000 0000 000000
2014-02-18 01:03:18,0.22,1.23,0.00,23.10,28.32,31.14,6.18,31.71,1036.15,2035.02,3039.20,2954.75,3208.14,351.35,331.36,6.99,0000 0000 0000 0000 000000
2014-02-18 01:04:18,0.25,1.23,0.00,23.11,28.32,31.19,6.04,31.75,1036.15,2035.02,3038.50,2954.28,3207.54,349.09,329.22,6.99,0000 0000 0000 0000 000000
2014-02-18 01:05:18,0.33,1.23,0.00,23.12,28.32,31.16,6.11,31.79,1036.15,2035.00,3037.95,2953.87,3207.19,349.48,329.52,7.00,0000 0000 0000 0000 000000
2014-02-18 01:06:19,0.22,1.23,0.00,23.12,28.32,31.20,6.08,31.83,1036.15,2035.03,3037.35,2953.34,3206.70,348.99,329.11,7.00,0000 0000 0000 0000 000000
2014-02-18 01:07:19,0.31,1.24,0.00,23.12,28.32,31.21,6.10,31.92,1036.16,2035.02,3036.75,2953.05,3206.25,349.54,329.42,7.01,0000 0000 0000 0000 000000
2014-02-18 01:08:19,0.22,1.24,0.00,23.12,28.31,31.16,6.12,31.96,1036.16,2035.02,3036.16,2952.48,3205.79,349.73,330.06,7.02,0000 0000 0000 0000 000000
2014-02-18 01:09:20,0.30,1.24,0.00,23.12,28.30,31.14,6.17,31.88,1036.15,2035.02,3035.50,2952.16,3205.30,350.03,330.09,7.02,0000 0000 0000 0000 000000
2014-02-18 01:10:20,0.24,1.24,0.00,23.12,28.30,31.13,6.10,31.83,1036.16,2035.06,3034.91,2951.78,3204.94,349.79,329.59,7.03,0000 0000 0000 0000 000000
2014-02-18 01:11:20,0.25,1.24,0.00,23.12,28.30,31.16,6.34,31.75,1036.16,2035.06,3034.31,2951.30,3204.39,350.30,330.68,7.03,0000 0000 0000 0000 000000
2014-02-18 01:12:20,0.32,1.24,0.00,23.12,28.30,31.12,6.05,31.58,1036.15,2035.06,3033.68,2951.00,3204.05,349.84,330.08,7.04,0000 0000 0000 0000 000000
2014-02-18 01:13:21,0.21,1.24,0.00,23.12,28.30,31.12,6.19,31.71,1036.16,2035.05,3033.13,2950.46,3203.47,350.30,330.84,7.04,0000 0000 0000 0000 000000
2014-02-18 01:14:21,0.29,1.25,0.00,23.12,28.30,31.09,6.21,31.67,1036.17,2035.08,3032.47,2950.13,3203.09,350.15,330.50,7.05,0000 0000 0000 0000 000000
2014-02-18 01:15:21,0.29,1.25,0.00,23.13,28.30,31.14,6.23,31.67,1036.18,2035.08,3031.94,2949.61,3202.54,348.97,329.06,7.06,0000 0000 0000 0000 000000
2014-02-18 01:16:21,0.26,1.25,0.00,23.13,28.30,31.12,6.23,31.75,1036.20,2035.05,3031.31,2949.20,3202.13,349.61,329.69,7.06,0000 0000 0000 0000 000000
2014-02-18 01:17:22,0.22,1.25,0.00,23.12,28.30,31.12,6.17,31.71,1036.19,2035.02,3030.62,2948.78,3201.54,350.22,330.28,7.07,0000 0000 0000 0000 000000
2014-02-18 01:18:22,0.27,1.25,0.00,23.12,28.30,31.09,6.19,31.54,1036.16,2035.03,3029.95,2948.30,3201.08,350.41,330.45,7.07,0000 0000 0000 0000 000000
2014-02-18 01:19:22,0.29,1.25,0.00,23.12,28.30,31.07,6.05,31.63,1036.17,2035.05,3029.35,2947.92,3200.51,349.69,329.77,7.08,0000 0000 0000 0000 000000
2014-02-18 01:20:23,0.27,1.26,0.00,23.13,28.30,31.05,6.10,31.71,1036.16,2035.06,3028.78,2947.39,3200.16,349.79,329.86,7.09,0000 0000 0000 0000 000000
2014-02-18 01:21:23,0.28,1.26,0.00,23.12,28.30,31.08,6.08,31.79,1036.16,2035.06,3028.22,2947.11,3199.58,348.97,329.35,7.09,0000 0000 0000 0000 000000
2014-02-18 01:22:23,0.27,1.26,0.00,23.12,28.30,31.06,6.00,31.67,1036.17,2035.09,3027.54,2946.55,3199.20,349.49,329.48,7.10,0000 0000 0000 0000 000000
2014-02-18 01:23:24,0.29,1.26,0.00,23.12,28.30,31.06,6.23,31.63,1036.15,2035.11,3026.99,2946.20,3198.94,350.81,330.64,7.10,0000 0000 0000 0000 000000
2014-02-18 01:24:24,0.25,1.26,0.00,23.12,28.30,31.10,6.16,31.71,1036.18,2035.14,3026.37,2945.79,3198.40,350.51,330.15,7.11,0000 0000 0000 0000 000000
2014-02-18 01:25:24,0.31,1.26,0.00,23.12,28.30,31.11,6.08,31.67,1036.17,2035.13,3025.79,2945.30,3197.91,349.90,329.97,7.11,0000 0000 0000 0000 000000
2014-02-18 01:26:24,0.23,1.27,0.00,23.12,28.30,31.09,6.13,31.79,1036.17,2035.11,3025.20,2944.96,3197.35,349.59,330.06,7.12,0000 0000 0000 0000 000000
2014-02-18 01:27:24,0.24,1.27,0.00,23.13,28.30,31.07,6.09,31.67,1036.16,2035.09,3024.51,2944.43,3197.05,349.39,329.51,7.13,0000 0000 0000 0000 000000
2014-02-18 01:28:25,0.27,1.27,0.00,23.13,28.30,31.11,6.01,31.75,1036.17,2035.08,3024.03,2944.15,3196.50,349.64,330.08,7.13,0000 0000 0000 0000 000000
2014-02-18 01:29:25,0.22,1.27,0.00,23.13,28.31,31.14,6.15,31.79,1036.15,2035.08,3023.38,2943.68,3196.11,350.47,330.30,7.14,0000 0000 0000 0000 000000
2014-02-18 01:30:26,0.29,1.27,0.00,23.14,28.31,31.11,6.13,31.71,1036.15,2035.10,3022.65,2943.24,3195.55,349.67,329.72,7.14,0000 0000 0000 0000 000000
2014-02-18 01:31:26,0.31,1.27,0.00,23.14,28.31,31.11,6.03,31.58,1036.15,2035.13,3021.97,2942.76,3195.10,349.51,329.66,7.15,0000 0000 0000 0000 000000
2014-02-18 01:32:26,0.29,1.27,0.00,23.14,28.31,31.07,6.19,31.50,1036.16,2035.12,3021.35,2942.28,3194.48,350.10,330.37,7.16,0000 0000 0000 0000 000000
2014-02-18 01:33:26,0.30,1.28,0.00,23.15,28.31,31.09,6.15,31.38,1036.15,2035.14,3020.77,2941.97,3194.15,350.80,330.79,7.16,0000 0000 0000 0000 000000
2014-02-18 01:34:27,0.26,1.28,0.00,23.15,28.31,31.09,6.10,31.33,1036.16,2035.18,3020.26,2941.49,3193.61,350.66,330.65,7.17,0000 0000 0000 0000 000000
2014-02-18 01:35:27,0.29,1.28,0.00,23.14,28.31,31.07,6.18,31.58,1036.16,2035.16,3019.61,2941.15,3193.20,351.03,331.01,7.17,0000 0000 0000 0000 000000
2014-02-18 01:36:27,0.24,1.28,0.00,23.14,28.31,31.11,6.21,31.50,1036.17,2035.15,3018.93,2940.66,3192.66,350.23,330.25,7.18,0000 0000 0000 0000 000000
2014-02-18 01:37:28,0.26,1.28,0.00,23.14,28.30,31.11,6.10,31.46,1036.16,2035.12,3018.29,2940.25,3192.24,350.10,330.13,7.19,0000 0000 0000 0000 000000
2014-02-18 01:38:28,0.26,1.28,0.00,23.14,28.30,31.11,6.19,31.58,1036.21,2035.13,3017.59,2939.86,3191.80,350.16,330.08,7.19,0000 0000 0000 0000 000000
2014-02-18 01:39:28,0.26,1.29,0.00,23.14,28.30,31.14,6.22,31.63,1036.21,2035.12,3017.05,2939.35,3191.30,349.81,329.73,7.20,0000 0000 0000 0000 000000
2014-02-18 01:40:28,0.29,1.29,0.00,23.14,28.30,31.10,6.13,31.71,1036.19,2035.16,3016.41,2939.02,3190.87,349.28,329.35,7.20,0000 0000 0000 0000 000000
2014-02-18 01:41:29,0.26,1.29,0.00,23.14,28.30,31.11,6.17,31.71,1036.20,2035.13,3015.76,2938.45,3190.33,350.98,331.27,7.21,0000 0000 0000 0000 000000
2014-02-18 01:42:29,0.29,1.29,0.00,23.15,28.30,31.11,6.22,31.46,1036.23,2035.11,3015.18,2938.16,3189.85,350.87,330.87,7.21,0000 0000 0000 0000 000000
2014-02-18 01:43:30,0.24,1.29,0.00,23.15,28.30,31.09,6.04,31.63,1036.40,2035.11,3014.51,2937.67,3189.32,349.08,329.24,7.22,0000 0000 0000 0000 000000
2014-02-18 01:44:30,0.27,1.29,0.00,23.15,28.30,31.13,6.17,31.63,1036.42,2035.08,3013.87,2937.23,3188.93,350.48,330.57,7.23,0000 0000 0000 0000 000000
2014-02-18 01:45:30,0.27,1.30,0.00,23.15,28.30,31.10,6.07,31.50,1036.41,2035.15,3013.24,2936.82,3188.39,349.07,329.11,7.23,0000 0000 0000 0000 000000
2014-02-18 01:46:30,0.32,1.30,0.00,23.15,28.30,31.17,6.02,31.54,1036.32,2035.12,3012.54,2936.31,3188.01,349.44,329.56,7.24,0000 0000 0000 0000 000000
2014-02-18 01:47:31,0.27,1.30,0.00,23.15,28.30,31.11,6.19,31.63,1036.32,2035.15,3012.05,2936.07,3187.42,350.69,330.73,7.24,0000 0000 0000 0000 000000
2014-02-18 01:48:31,0.26,1.30,0.00,23.15,28.30,31.13,6.15,31.54,1036.26,2035.14,3011.41,2935.53,3187.05,350.30,330.35,7.25,0000 0000 0000 0000 000000
2014-02-18 01:49:31,0.26,1.30,0.00,23.15,28.30,31.09,6.24,31.42,1036.27,2035.09,3010.88,2935.17,3186.45,350.51,330.70,7.26,0000 0000 0000 0000 000000
2014-02-18 01:50:31,0.22,1.31,0.00,23.15,28.30,31.13,6.06,31.63,1036.36,2035.05,3010.29,2934.60,3186.08,350.02,330.11,7.26,0000 0000 0000 0000 000000
2014-02-18 01:51:32,0.26,1.31,0.00,23.17,28.30,31.13,6.02,31.83,1036.41,2035.06,3009.61,2934.21,3185.49,349.05,329.19,7.27,0000 0000 0000 0000 000000
2014-02-18 01:52:32,0.27,1.31,0.00,23.16,28.30,31.06,6.12,31.58,1036.51,2035.07,3008.96,2933.76,3185.12,349.41,329.57,7.27,0000 0000 0000 0000 000000
2014-02-18 01:53:32,0.30,1.31,0.00,23.15,28.30,31.10,6.19,31.75,1036.53,2035.07,3008.35,2933.28,3184.53,348.73,328.95,7.28,0000 0000 0000 0000 000000
2014-02-18 01:54:33,0.28,1.31,0.00,23.15,28.30,31.06,6.02,31.67,1036.56,2035.07,3007.75,2932.96,3184.17,350.02,330.18,7.28,0000 0000 0000 0000 000000
2014-02-18 01:55:33,0.25,1.31,0.00,23.14,28.30,31.08,6.04,31.63,1036.51,2035.06,3007.27,2932.40,3183.65,349.60,329.77,7.29,0000 0000 0000 0000 000000
2014-02-18 01:56:33,0.26,1.31,0.00,23.14,28.30,31.11,5.95,31.83,1036.43,2035.13,3006.71,2932.14,3183.24,350.09,330.15,7.30,0000 0000 0000 0000 000000
2014-02-18 01:57:33,0.29,1.32,0.00,23.14,28.30,31.11,6.04,31.92,1036.30,2035.19,3006.15,2931.63,3182.75,349.55,329.51,7.30,0000 0000 0000 0000 000000
2014-02-18 01:58:34,0.33,1.32,0.00,23.14,28.29,31.16,6.24,31.67,1036.32,2035.17,3005.50,2931.23,3182.28,350.96,330.98,7.31,0000 0000 0000 0000 000000
2014-02-18 01:59:34,0.21,1.32,0.00,23.14,28.29,31.15,6.08,31.67,1036.50,2035.18,3004.99,2930.94,3181.92,349.89,329.73,7.31,0000 0000 0000 0000 000000
2014-02-18 02:00:34,0.27,1.32,0.00,23.14,28.29,31.10,6.07,31.83,1036.48,2035.23,3004.40,2930.40,3181.38,349.82,330.29,7.32,0000 0000 0000 0000 000000
2014-02-18 02:01:35,0.29,1.32,0.00,23.14,28.28,31.12,6.23,31.83,1036.53,2035.16,3003.70,2930.07,3180.94,349.96,330.01,7.33,0000 0000 0000 0000 000000
2014-02-18 02:02:35,0.27,1.32,0.00,23.14,28.28,31.07,6.18,31.79,1036.51,2035.25,3003.16,2929.49,3180.38,349.45,329.38,7.33,0000 0000 0000 0000 000000
2014-02-18 02:03:35,0.30,1.33,0.00,23.14,28.28,31.05,6.11,31.79,1036.45,2035.18,3002.48,2929.17,3180.01,349.60,329.66,7.34,0000 0000 0000 0000 000000
2014-02-18 02:04:36,0.20,1.33,0.00,23.15,28.27,31.11,6.24,31.54,1036.48,2035.14,3001.91,2928.74,3179.42,350.29,330.57,7.34,0000 0000 0000 0000 000000
2014-02-18 02:05:36,0.26,1.33,0.00,23.14,28.27,31.12,6.15,31.63,1036.50,2035.14,3001.30,2928.27,3179.07,349.89,330.06,7.35,0000 0000 0000 0000 000000
2014-02-18 02:06:36,0.26,1.33,0.00,23.14,28.27,31.06,6.17,31.54,1036.59,2035.10,3000.63,2928.03,3178.50,350.94,331.66,7.36,0000 0000 0000 0000 000000
2014-02-18 02:07:37,0.20,1.33,0.00,23.14,28.27,31.10,6.17,31.50,1036.61,2035.14,3000.16,2927.51,3178.17,349.80,329.99,7.36,0000 0000 0000 0000 000000
2014-02-18 02:08:37,0.29,1.33,0.00,23.15,28.27,31.13,6.11,31.71,1036.62,2035.26,2999.52,2927.16,3177.64,349.70,329.89,7.37,0000 0000 0000 0000 000000
2014-02-18 02:09:37,0.34,1.34,0.00,23.15,28.27,31.11,6.18,31.67,1036.63,2035.32,2998.95,2926.68,3177.22,349.81,329.92,7.37,0000 0000 0000 0000 000000
2014-02-18 02:10:37,0.32,1.34,0.00,23.15,28.27,31.04,6.24,31.75,1036.63,2035.23,2998.35,2926.25,3176.66,350.37,330.53,7.38,0000 0000 0000 0000 000000
2014-02-18 02:11:38,0.20,1.34,0.00,23.14,28.27,31.06,6.13,31.58,1036.61,2035.20,2997.72,2925.88,3176.24,349.93,330.11,7.38,0000 0000 0000 0000 000000
2014-02-18 02:12:38,0.27,1.34,0.00,23.15,28.27,31.09,6.16,31.71,1036.64,2035.23,2997.14,2925.34,3175.70,349.95,330.52,7.39,0000 0000 0000 0000 000000
2014-02-18 02:13:38,0.32,1.34,0.00,23.15,28.27,31.11,6.16,31.54,1036.61,2035.20,2996.47,2925.00,3175.25,349.94,330.55,7.40,0000 0000 0000 0000 000000
2014-02-18 02:14:38,0.21,1.34,0.00,23.15,28.27,31.08,6.06,31.79,1036.58,2035.19,2995.86,2924.46,3174.84,349.95,330.12,7.40,0000 0000 0000 0000 000000
2014-02-18 02:15:39,0.27,1.35,0.00,23.15,28.27,31.08,6.13,31.58,1036.57,2035.16,2995.25,2924.15,3174.31,349.33,329.53,7.41,0000 0000 0000 0000 000000
2014-02-18 02:16:39,0.27,1.35,0.00,23.15,28.27,31.09,6.10,31.67,1036.62,2035.16,2994.56,2923.64,3173.88,350.17,330.51,7.41,0000 0000 0000 0000 000000
2014-02-18 02:17:39,0.25,1.35,0.00,23.15,28.27,31.06,6.28,31.58,1036.61,2035.10,2994.01,2923.23,3173.33,351.41,331.50,7.42,0000 0000 0000 0000 000000
2014-02-18 02:18:40,0.29,1.35,0.00,23.15,28.27,31.08,6.17,31.50,1036.63,2035.19,2993.37,2922.91,3172.99,349.90,330.09,7.43,0000 0000 0000 0000 000000
2014-02-18 02:19:40,0.27,1.35,0.00,23.14,28.27,31.05,6.13,31.71,1036.64,2035.16,2992.71,2922.37,3172.42,349.45,329.66,7.43,0000 0000 0000 0000 000000
2014-02-18 02:20:40,0.27,1.35,0.00,23.14,28.27,31.07,6.23,31.75,1036.64,2035.19,2992.22,2922.07,3172.11,349.28,329.57,7.44,0000 0000 0000 0000 000000
2014-02-18 02:21:40,0.27,1.35,0.00,23.14,28.27,31.04,5.94,31.63,1036.64,2035.19,2991.57,2921.52,3171.55,349.97,330.16,7.44,0000 0000 0000 0000 000000
2014-02-18 02:22:41,0.28,1.36,0.00,23.14,28.27,31.03,6.20,31.58,1036.64,2035.18,2990.99,2921.18,3171.17,350.45,330.33,7.45,0000 0000 0000 0000 000000
2014-02-18 02:23:41,0.26,1.36,0.00,23.14,28.27,31.08,6.12,31.63,1036.64,2035.17,2990.36,2920.76,3170.61,349.14,329.57,7.46,0000 0000 0000 0000 000000
2014-02-18 02:24:41,0.25,1.36,0.00,23.14,28.27,31.06,6.14,31.67,1036.64,2035.15,2989.70,2920.28,3170.21,349.44,330.01,7.46,0000 0000 0000 0000 000000
2014-02-18 02:25:42,0.29,1.36,0.00,23.14,28.27,31.04,6.10,31.71,1036.64,2035.26,2989.18,2919.96,3169.72,348.63,328.89,7.47,0000 0000 0000 0000 000000
2014-02-18 02:26:42,0.34,1.36,0.00,23.14,28.26,31.02,6.22,31.79,1036.64,2035.26,2988.50,2919.41,3169.25,350.22,330.40,7.47,0000 0000 0000 0000 000000
2014-02-18 02:27:42,0.23,1.36,0.00,23.14,28.26,31.04,6.27,31.58,1036.64,2035.18,2988.02,2919.09,3168.70,350.64,330.79,7.48,0000 0000 0000 0000 000000
2014-02-18 02:28:42,0.21,1.37,0.00,23.14,28.25,31.03,6.30,31.75,1036.64,2035.26,2987.39,2918.54,3168.25,349.07,329.31,7.48,0000 0000 0000 0000 000000
2014-02-18 02:29:42,0.34,1.37,0.00,23.14,28.25,31.00,6.16,31.79,1036.64,2035.24,2986.70,2918.19,3167.83,350.13,330.31,7.49,0000 0000 0000 0000 000000
2014-02-18 02:30:43,0.22,1.37,0.00,23.14,28.25,31.07,6.41,31.83,1036.64,2035.22,2986.20,2917.77,3167.32,351.46,331.57,7.50,0000 0000 0000 0000 000000
2014-02-18 02:31:43,0.28,1.37,0.00,23.14,28.25,31.07,6.03,31.88,1036.64,2035.23,2985.54,2917.28,3166.88,349.25,329.48,7.50,0000 0000 0000 0000 000000
2014-02-18 02:32:43,0.31,1.37,0.00,23.15,28.25,31.05,6.19,31.96,1036.64,2035.31,2984.99,2917.02,3166.35,350.11,330.66,7.51,0000 0000 0000 0000 000000
2014-02-18 02:33:43,0.34,1.37,0.00,23.14,28.25,31.06,5.98,31.79,1036.64,2035.54,2984.38,2916.53,3166.07,348.34,328.69,7.51,0000 0000 0000 0000 000000
2014-02-18 02:34:44,0.40,1.38,0.00,23.14,28.25,31.01,6.09,31.83,1036.64,2035.57,2983.78,2916.18,3165.51,349.73,329.72,7.52,0000 0000 0000 0000 000000
2014-02-18 02:35:44,0.25,1.38,0.00,23.14,28.25,31.00,6.19,31.46,1036.64,2035.48,2983.20,2915.69,3165.13,350.67,330.72,7.53,0000 0000 0000 0000 000000
2014-02-18 02:36:44,0.23,1.38,0.00,23.14,28.25,31.01,6.07,31.63,1036.64,2035.44,2982.50,2915.25,3164.55,349.91,329.88,7.53,0000 0000 0000 0000 000000